Palma de Mallorca, Spain

9:47 AM CEST on May 27, 2017 (GMT +0200)
Palma De Mallorca

Weather History for LEPA - February, 2014

Change the Weather History Date:

Tuesday, February 25, 2014

  Actual Average Record
Temperature  
Mean Temperature 52 °F -  
Max Temperature 62 °F 61 °F 68 °F (2007)
Min Temperature 42 °F 41 °F 33 °F (2006)
Degree Days  
Heating Degree Days 13    
Growing Degree Days 2 (Base 50)    
Moisture  
Dew Point 47 °F    
Average Humidity 81    
Maximum Humidity 100    
Minimum Humidity 55    
Precipitation  
Precipitation 0.00 in 0.05 in - ()
Sea Level Pressure  
Sea Level Pressure 30.07 in    
Wind  
Wind Speed 4 mph ()    
Max Wind Speed 16 mph    
Max Gust Speed -    
Visibility 7.0 miles    
Events      
Averages and records for this station are not official NWS values.
T = Trace of Precipitation, MM = Missing Value Source: Averaged Metar Reports

Daily Weather History Graph

Daily Weather History Graph

Search for Another Location

Airport or City:

Trip Planner

Search our weather history database for the weather conditions in past years. The results will help you decide how hot, cold, wet, or windy it might be!

Date:

Astronomy

Feb. 25, 2014 Rise Set
Actual Time 7:28 AM CET 6:36 PM CET
Civil Twilight 7:01 AM CET 7:03 PM CET
Nautical Twilight 6:29 AM CET 7:35 PM CET
Astronomical Twilight 5:58 AM CET 8:06 PM CET
Moon 4:08 AM CET (2/25) 2:25 PM CET (2/25)
Length of Visible Light 12h 02m
Length of Day
11h 08m
Waning Crescent, 21% of the Moon is Illuminated
Feb 25
Waning Crescent
Mar 1
New
Mar 8
First Quarter
Mar 16
Full
Mar 24
Last Quarter

Hourly Weather History & Observations

Time (CET) Temp. Windchill Dew Point Humidity Pressure Visibility Wind Dir Wind Speed Gust Speed Precip Events Conditions
12:00 AM 49 °F - 46 °F 85% 30.09 in - East 1.2 mph - -  
12:00 AM 50.0 °F - 46.4 °F 87% 30.06 in 6.2 mi Calm Calm - N/A   Scattered Clouds
12:30 AM 48.2 °F - 46.4 °F 93% 30.06 in 6.2 mi Variable 1.2 mph - N/A   Partly Cloudy
1:00 AM 47 °F - 46 °F 94% 30.09 in 9 mi Calm Calm - -   Partly Cloudy
1:00 AM 46.4 °F - 44.6 °F 93% 30.06 in 6.2 mi Calm Calm - N/A   Scattered Clouds
1:30 AM 48.2 °F - 46.4 °F 93% 30.06 in 6.2 mi NE 1.2 mph - N/A   Partly Cloudy
2:00 AM 46 °F - 44 °F 91% 30.08 in - NE 1.2 mph - -  
2:00 AM 46.4 °F 45.2 °F 44.6 °F 93% 30.06 in 6.2 mi ENE 3.5 mph - N/A   Partly Cloudy
2:30 AM 46.4 °F - 44.6 °F 93% 30.06 in 6.2 mi Calm Calm - N/A   Partly Cloudy
3:00 AM 45 °F - 44 °F 93% 30.08 in - NE 2.3 mph - -  
3:00 AM 44.6 °F - 42.8 °F 93% 30.06 in 6.2 mi Variable 1.2 mph - N/A   Partly Cloudy
3:30 AM 44.6 °F - 42.8 °F 93% 30.06 in 6.2 mi ENE 1.2 mph - N/A   Partly Cloudy
4:00 AM 44 °F - 43 °F 94% 30.07 in 9 mi NNW 4.6 mph - -   Scattered Clouds
4:00 AM 42.8 °F - 42.8 °F 100% 30.06 in 6.2 mi Variable 1.2 mph - N/A   Partly Cloudy
4:30 AM 44.6 °F - 42.8 °F 93% 30.04 in 6.2 mi Calm Calm - N/A   Partly Cloudy
5:00 AM 44 °F - 44 °F 98% 30.06 in - Calm Calm - -  
5:00 AM 44.6 °F - 44.6 °F 100% 30.04 in 6.2 mi Calm Calm - N/A   Partly Cloudy
5:30 AM 42.8 °F - 41.0 °F 93% 30.06 in 6.2 mi Variable 1.2 mph - N/A   Partly Cloudy
6:00 AM 45 °F - 44 °F 95% 30.08 in - NW 3.5 mph - -  
6:00 AM 44.6 °F - 44.6 °F 100% 30.06 in 6.2 mi North 2.3 mph - N/A   Partly Cloudy
6:30 AM 46.4 °F - 46.4 °F 100% 30.06 in 6.2 mi Calm Calm - N/A   Partly Cloudy
7:00 AM 46 °F - 45 °F 95% 30.09 in 9 mi Calm Calm - -   Partly Cloudy
7:00 AM 46.4 °F - 44.6 °F 93% 30.06 in 6.2 mi Calm Calm - N/A   Scattered Clouds
7:30 AM 46.4 °F - 44.6 °F 93% 30.09 in 6.2 mi Calm Calm - N/A   Scattered Clouds
8:00 AM 47 °F - 46 °F 92% 30.11 in - ENE 2.3 mph - -  
8:00 AM 46.4 °F - 46.4 °F 100% 30.09 in 6.2 mi Calm Calm - N/A   Scattered Clouds
8:30 AM 48.2 °F - 46.4 °F 93% 30.09 in 6.2 mi ENE 1.2 mph - N/A   Scattered Clouds
9:00 AM 50 °F - 48 °F 92% 30.12 in - Calm Calm - -  
9:00 AM 50.0 °F - 48.2 °F 94% 30.09 in 6.2 mi Calm Calm - N/A   Scattered Clouds
9:30 AM 51.8 °F - 50.0 °F 94% 30.09 in 6.2 mi Variable 1.2 mph - N/A   Scattered Clouds
10:00 AM 53 °F - 50 °F 84% 30.12 in 12 mi Calm Calm - -   Partly Cloudy
10:00 AM 53.6 °F - 50.0 °F 88% 30.09 in 6.2 mi Calm Calm - N/A   Scattered Clouds
10:30 AM 57.2 °F - 51.8 °F 82% 30.09 in 6.2 mi Calm Calm - N/A   Partly Cloudy
11:00 AM 60 °F - 49 °F 59% 30.10 in - SSW 2.3 mph - -  
11:00 AM 59.0 °F - 50.0 °F 72% 30.09 in 6.2 mi Variable 1.2 mph - N/A   Partly Cloudy
11:30 AM 59.0 °F - 50.0 °F 72% 30.09 in 6.2 mi Variable 4.6 mph - N/A   Partly Cloudy
12:00 PM 61 °F - 51 °F 60% 30.10 in - SW 8.1 mph - -  
12:00 PM 59.0 °F - 50.0 °F 72% 30.09 in 6.2 mi WSW 4.6 mph - N/A   Partly Cloudy
12:30 PM 59.0 °F - 50.0 °F 72% 30.09 in 6.2 mi SW 9.2 mph - N/A   Partly Cloudy
1:00 PM 61 °F - 50 °F 59% 30.10 in 16 mi SSW 12.7 mph - -   Scattered Clouds
1:00 PM 60.8 °F - 51.8 °F 72% 30.09 in 6.2 mi SSW 10.4 mph - N/A   Partly Cloudy
1:30 PM 59.0 °F - 51.8 °F 77% 30.06 in 6.2 mi SW 13.8 mph - N/A   Partly Cloudy
2:00 PM 61 °F - 52 °F 64% 30.08 in - SW 16.1 mph - -  
2:00 PM 59.0 °F - 51.8 °F 77% 30.06 in 6.2 mi SW 15.0 mph - N/A   Partly Cloudy
2:30 PM 59.0 °F - 51.8 °F 77% 30.06 in 6.2 mi WSW 12.7 mph - N/A   Partly Cloudy
3:00 PM 61 °F - 51 °F 61% 30.07 in - SW 13.8 mph - -  
3:00 PM 59.0 °F - 51.8 °F 77% 30.06 in 6.2 mi SW 11.5 mph - N/A   Partly Cloudy
3:30 PM 59.0 °F - 50.0 °F 72% 30.06 in 6.2 mi SW 10.4 mph - N/A   Partly Cloudy
4:00 PM 60 °F - 48 °F 55% 30.07 in 16 mi SW 13.8 mph - -   Scattered Clouds
4:00 PM 59.0 °F - 48.2 °F 67% 30.06 in 6.2 mi WSW 11.5 mph - N/A   Partly Cloudy
4:30 PM 57.2 °F - 48.2 °F 72% 30.06 in 6.2 mi SW 12.7 mph - N/A   Partly Cloudy
5:00 PM 58 °F - 47 °F 59% 30.07 in - WSW 13.8 mph - -  
5:00 PM 57.2 °F - 48.2 °F 72% 30.06 in 6.2 mi WSW 12.7 mph - N/A   Partly Cloudy
5:30 PM 55.4 °F - 46.4 °F 72% 30.06 in 6.2 mi WSW 10.4 mph - N/A   Partly Cloudy
6:00 PM 56 °F - 46 °F 59% 30.06 in - WSW 12.7 mph - -  
6:00 PM 55.4 °F - 46.4 °F 72% 30.06 in 6.2 mi WSW 10.4 mph - N/A   Partly Cloudy
6:30 PM 55.4 °F - 44.6 °F 67% 30.06 in 6.2 mi WSW 11.5 mph - N/A   Partly Cloudy
7:00 PM 55 °F - 45 °F 61% 30.08 in 12 mi WSW 8.1 mph - -   Scattered Clouds
7:00 PM 55.4 °F - 44.6 °F 67% 30.06 in 6.2 mi WSW 11.5 mph - N/A   Partly Cloudy
7:30 PM 55.4 °F - 46.4 °F 72% 30.06 in 6.2 mi WSW 10.4 mph - N/A   Partly Cloudy
8:00 PM 56 °F - 49 °F 69% 30.08 in - SW 13.8 mph - -  
8:00 PM 55.4 °F - 48.2 °F 77% 30.06 in 6.2 mi WSW 13.8 mph - N/A   Partly Cloudy
8:30 PM 55.4 °F - 46.4 °F 72% 30.06 in 6.2 mi WSW 10.4 mph - N/A   Partly Cloudy
9:00 PM 56 °F - 47 °F 64% 30.09 in - SW 11.5 mph - -  
9:00 PM 55.4 °F - 46.4 °F 72% 30.06 in 6.2 mi WSW 10.4 mph - N/A   Partly Cloudy
9:30 PM 55.4 °F - 46.4 °F 72% 30.09 in 6.2 mi WSW 10.4 mph - N/A   Partly Cloudy
10:00 PM 56 °F - 50 °F 73% 30.09 in 9 mi WSW 13.8 mph - -   Scattered Clouds
10:00 PM 55.4 °F - 50.0 °F 82% 30.09 in 6.2 mi WSW 10.4 mph - N/A   Partly Cloudy
10:30 PM 57.2 °F - 50.0 °F 77% 30.09 in 6.2 mi SW 11.5 mph - N/A   Partly Cloudy
11:00 PM 56 °F - 51 °F 77% 30.09 in - WSW 11.5 mph - -  
11:00 PM 55.4 °F - 50.0 °F 82% 30.09 in 6.2 mi WSW 9.2 mph - N/A   Partly Cloudy
11:30 PM 55.4 °F - 50.0 °F 82% 30.06 in 6.2 mi WSW 6.9 mph - N/A   Partly Cloudy